When you browse on this site, cookies collect data to enhance your experience and personalize the content and advertising you see.
Visit our Privacy Policy to learn more. By continuing to use the site, you agree to this use of cookies and data.
  • In Netherlands
  • List of Countries
  • For 7 days
  • Water Temperature
  • Weather Map
  • Weather Widgets
  • user-avatar
    Login

    Hourly Weather Ghazni

    Today, 15 October, Tuesday

    Time Temperature Precipitation Wind Pressure Humidity
    00:00 +12°C° 0 mm 1 mps 589 mmHg 24%
    01:00 +11°C° 0 mm 1 mps 588 mmHg 26%
    02:00 +10°C° 0 mm 1 mps 588 mmHg 27%
    03:00 +10°C° 0 mm 1 mps 588 mmHg 28%
    04:00 +9°C° 0 mm 1 mps 587 mmHg 29%
    05:00 +9°C° 0 mm 1 mps 587 mmHg 30%
    06:00 +10°C° 0 mm 1 mps 588 mmHg 28%
    07:00 +11°C° 0 mm 1 mps 589 mmHg 25%
    08:00 +13°C° 0 mm 1 mps 590 mmHg 23%
    09:00 +15°C° 0 mm 1 mps 591 mmHg 20%
    10:00 +18°C° 0 mm 1 mps 591 mmHg 17%
    11:00 +20°C° 0 mm 1 mps 592 mmHg 14%
    12:00 +20°C° 0 mm 2 mps 592 mmHg 13%
    13:00 +21°C° 0 mm 2 mps 592 mmHg 11%
    14:00 +23°C° 0 mm 2 mps 591 mmHg 10%
    15:00 +22°C° 0 mm 3 mps 591 mmHg 10%
    16:00 +21°C° 0 mm 3 mps 591 mmHg 11%
    17:00 +21°C° 0 mm 3 mps 591 mmHg 11%
    18:00 +19°C° 0 mm 3 mps 590 mmHg 14%
    19:00 +16°C° 0 mm 2 mps 590 mmHg 16%
    20:00 +14°C° 0 mm 2 mps 589 mmHg 19%
    21:00 +13°C° 0 mm 2 mps 589 mmHg 21%
    22:00 +12°C° 0 mm 1 mps 589 mmHg 24%
    23:00 +11°C° 0 mm 1 mps 588 mmHg 26%

    Tomorrow, 16 October, Wednesday

    Time Temperature Precipitation Wind Pressure Humidity
    00:00 +11°C° 0 mm 1 mps 588 mmHg 28%
    01:00 +10°C° 0 mm 1 mps 587 mmHg 30%
    02:00 +8°C° 0 mm 0 mps 587 mmHg 32%
    03:00 +8°C° 0 mm 0 mps 587 mmHg 33%
    04:00 +7°C° 0 mm 0 mps 587 mmHg 34%
    05:00 +8°C° 0 mm 1 mps 586 mmHg 35%
    06:00 +8°C° 0 mm 0 mps 587 mmHg 31%
    07:00 +10°C° 0 mm 0 mps 589 mmHg 28%
    08:00 +12°C° 0 mm 0 mps 590 mmHg 25%
    09:00 +14°C° 0 mm 1 mps 590 mmHg 23%
    10:00 +16°C° 0 mm 1 mps 590 mmHg 20%
    11:00 +18°C° 0 mm 1 mps 591 mmHg 18%
    12:00 +19°C° 0 mm 2 mps 591 mmHg 16%
    13:00 +20°C° 0 mm 3 mps 591 mmHg 14%
    14:00 +21°C° 0 mm 3 mps 590 mmHg 13%
    15:00 +21°C° 0 mm 4 mps 590 mmHg 12%
    16:00 +21°C° 0 mm 4 mps 590 mmHg 11%
    17:00 +21°C° 0 mm 5 mps 590 mmHg 10%
    18:00 +17°C° 0 mm 5 mps 589 mmHg 14%
    19:00 +15°C° 0 mm 4 mps 589 mmHg 17%
    20:00 +13°C° 0 mm 4 mps 588 mmHg 20%
    21:00 +12°C° 0 mm 3 mps 588 mmHg 21%
    22:00 +11°C° 0 mm 3 mps 588 mmHg 22%
    23:00 +12°C° 0 mm 2 mps 588 mmHg 23%

    Day after tomorrow, 17 October, Thursday

    Time Temperature Precipitation Wind Pressure Humidity
    00:00 +11°C° 0 mm 1 mps 587 mmHg 26%
    01:00 +9°C° 0 mm 1 mps 586 mmHg 29%
    02:00 +8°C° 0 mm 1 mps 586 mmHg 33%
    03:00 +8°C° 0 mm 1 mps 586 mmHg 34%
    04:00 +7°C° 0 mm 1 mps 585 mmHg 36%
    05:00 +7°C° 0 mm 1 mps 585 mmHg 37%
    06:00 +7°C° 0 mm 0 mps 586 mmHg 34%
    07:00 +9°C° 0 mm 0 mps 587 mmHg 31%
    08:00 +10°C° 0 mm 0 mps 588 mmHg 28%
    09:00 +13°C° 0 mm 1 mps 589 mmHg 25%
    10:00 +14°C° 0 mm 1 mps 589 mmHg 22%
    11:00 +16°C° 0 mm 2 mps 590 mmHg 20%
    12:00 +17°C° 0 mm 2 mps 590 mmHg 18%
    13:00 +18°C° 0 mm 3 mps 590 mmHg 15%
    14:00 +19°C° 0 mm 4 mps 589 mmHg 13%
    15:00 +19°C° 0 mm 5 mps 589 mmHg 13%
    16:00 +19°C° 0 mm 5 mps 589 mmHg 13%
    17:00 +17°C° 0 mm 5 mps 589 mmHg 13%
    18:00 +15°C° 0 mm 4 mps 589 mmHg 16%
    19:00 +13°C° 0 mm 3 mps 588 mmHg 19%
    20:00 +12°C° 0 mm 2 mps 588 mmHg 21%
    21:00 +10°C° 0 mm 2 mps 587 mmHg 23%
    22:00 +10°C° 0 mm 1 mps 587 mmHg 25%
    23:00 +10°C° 0 mm 1 mps 587 mmHg 26%

    18 October, Friday

    Time Temperature Precipitation Wind Pressure Humidity
    00:00 +9°C° 0 mm 1 mps 587 mmHg 28%
    01:00 +8°C° 0 mm 1 mps 586 mmHg 30%
    02:00 +7°C° 0 mm 0 mps 586 mmHg 32%
    03:00 +6°C° 0 mm 0 mps 585 mmHg 33%
    04:00 +5°C° 0 mm 0 mps 585 mmHg 35%
    05:00 +5°C° 0 mm 0 mps 585 mmHg 36%
    06:00 +7°C° 0 mm 0 mps 586 mmHg 33%
    07:00 +10°C° 0 mm 1 mps 587 mmHg 29%
    08:00 +11°C° 0 mm 1 mps 588 mmHg 25%
    09:00 +13°C° 0 mm 1 mps 589 mmHg 23%
    10:00 +15°C° 0 mm 1 mps 590 mmHg 20%
    11:00 +16°C° 0 mm 1 mps 590 mmHg 18%
    12:00 +17°C° 0 mm 2 mps 590 mmHg 17%
    13:00 +18°C° 0 mm 3 mps 590 mmHg 17%
    14:00 +18°C° 0 mm 4 mps 590 mmHg 16%
    15:00 +17°C° 0 mm 4 mps 590 mmHg 20%
    16:00 +15°C° 0 mm 5 mps 589 mmHg 24%
    17:00 +14°C° 0 mm 5 mps 588 mmHg 28%
    18:00 +13°C° 0 mm 4 mps 588 mmHg 33%
    19:00 +12°C° 0 mm 2 mps 588 mmHg 38%
    20:00 +10°C° 0 mm 1 mps 587 mmHg 43%
    21:00 +10°C° 0 mm 1 mps 587 mmHg 44%
    22:00 +9°C° 0 mm 1 mps 587 mmHg 45%
    23:00 +8°C° 0 mm 0 mps 587 mmHg 46%

    19 October, Saturday

    Time Temperature Precipitation Wind Pressure Humidity
    00:00 +7°C° 0 mm 0 mps 587 mmHg 48%
    01:00 +7°C° 0 mm 0 mps 586 mmHg 50%
    02:00 +6°C° 0 mm 0 mps 586 mmHg 51%
    03:00 +6°C° 0 mm 0 mps 586 mmHg 53%
    04:00 +5°C° 0 mm 0 mps 586 mmHg 55%
    05:00 +5°C° 0 mm 0 mps 586 mmHg 57%
    06:00 +7°C° 0 mm 0 mps 587 mmHg 51%
    07:00 +8°C° 0 mm 0 mps 588 mmHg 44%
    08:00 +10°C° 0 mm 0 mps 589 mmHg 38%
    09:00 +13°C° 0 mm 1 mps 590 mmHg 34%
    10:00 +14°C° 0 mm 1 mps 590 mmHg 30%
    11:00 +16°C° 0 mm 1 mps 591 mmHg 26%
    12:00 +17°C° 0 mm 2 mps 591 mmHg 24%
    13:00 +18°C° 0 mm 2 mps 591 mmHg 21%
    14:00 +19°C° 0 mm 3 mps 591 mmHg 19%
    15:00 +18°C° 0 mm 3 mps 590 mmHg 18%
    16:00 +18°C° 0 mm 3 mps 590 mmHg 18%
    17:00 +18°C° 0 mm 4 mps 590 mmHg 17%
    18:00 +17°C° 0 mm 3 mps 589 mmHg 19%
    19:00 +14°C° 0 mm 3 mps 589 mmHg 21%
    20:00 +13°C° 0 mm 3 mps 589 mmHg 23%
    21:00 +12°C° 0 mm 3 mps 589 mmHg 24%
    22:00 +12°C° 0 mm 2 mps 588 mmHg 25%
    23:00 +12°C° 0 mm 2 mps 588 mmHg 25%

    20 October, Sunday

    Time Temperature Precipitation Wind Pressure Humidity
    00:00 +10°C° 0 mm 2 mps 588 mmHg 27%
    01:00 +10°C° 0 mm 1 mps 587 mmHg 29%
    02:00 +9°C° 0 mm 1 mps 586 mmHg 31%
    03:00 +8°C° 0 mm 1 mps 586 mmHg 32%
    04:00 +6°C° 0 mm 0 mps 586 mmHg 34%
    05:00 +6°C° 0 mm 0 mps 585 mmHg 35%
    06:00 +7°C° 0 mm 0 mps 587 mmHg 32%
    07:00 +9°C° 0 mm 0 mps 588 mmHg 28%
    08:00 +10°C° 0 mm 0 mps 589 mmHg 25%
    09:00 +13°C° 0 mm 1 mps 589 mmHg 23%
    10:00 +15°C° 0 mm 1 mps 590 mmHg 20%
    11:00 +16°C° 0 mm 1 mps 590 mmHg 18%
    12:00 +17°C° 0 mm 2 mps 590 mmHg 16%
    13:00 +18°C° 0 mm 2 mps 590 mmHg 15%
    14:00 +19°C° 0 mm 3 mps 590 mmHg 14%
    15:00 +19°C° 0 mm 3 mps 590 mmHg 13%
    16:00 +18°C° 0 mm 2 mps 590 mmHg 13%
    17:00 +18°C° 0 mm 2 mps 590 mmHg 13%
    18:00 +16°C° 0 mm 3 mps 589 mmHg 15%
    19:00 +13°C° 0 mm 3 mps 589 mmHg 17%
    20:00 +11°C° 0 mm 3 mps 588 mmHg 19%
    21:00 +10°C° 0 mm 2 mps 588 mmHg 20%
    22:00 +10°C° 0 mm 2 mps 588 mmHg 21%
    23:00 +10°C° 0 mm 1 mps 588 mmHg 22%
    Show more